Location: Izdebno
(52.6670°N, 16.2170°E)
Time: 02:49:00
(UTC+02:00)

Transit 2A - Pass Details

Date: 02 March 2024
Orbit: 596 x 956 km, 66.7° (Epoch: 21 April)

Event Time Altitude Azimuth Distance (km) Brightness Sun altitude
Rises 17:18:57 0° 175° (S) 2,844 9.1 1.8°
Reaches altitude 10° 17:21:39 10° 158° (SSE) 1,932 8.0 1.4°
Maximum altitude 17:24:45 20° 112° (ESE) 1,415 7.0 0.9°
Drops below altitude 10° 17:27:54 10° 65° (ENE) 1,959 7.5 0.5°
Sets 17:30:40 0° 48° (NE) 2,897 8.5 0.0°
